• In Hungary
  • List of Countries
  • For 7 days
  • Water Temperature
  • Satellite Maps
  • Weather Map
  • News
  • Weather Widgets
  • user-avatar
    Login

    Hourly Weather Bismarck

    Today, 20 February, Tuesday

    Time Temperature Precipitation Wind Pressure Humidity
    00:00 -22°C° 0.1 mm 3 mps 720 mmHg 96%
    01:00 -20°C° 0.1 mm 2 mps 720 mmHg 96%
    02:00 -20°C° 0.1 mm 2 mps 720 mmHg 97%
    03:00 -20°C° 0.2 mm 2 mps 720 mmHg 96%
    04:00 -20°C° 0.2 mm 2 mps 720 mmHg 96%
    05:00 -20°C° 0.2 mm 2 mps 720 mmHg 96%
    06:00 -22°C° 0.1 mm 3 mps 720 mmHg 95%
    07:00 -21°C° 0.1 mm 3 mps 720 mmHg 95%
    08:00 -21°C° 0.1 mm 3 mps 720 mmHg 94%
    09:00 -21°C° 0 mm 3 mps 721 mmHg 92%
    10:00 -20°C° 0 mm 4 mps 721 mmHg 89%
    11:00 -19°C° 0 mm 4 mps 721 mmHg 87%
    12:00 -18°C° 0 mm 4 mps 721 mmHg 85%
    13:00 -18°C° 0 mm 4 mps 721 mmHg 84%
    14:00 -17°C° 0 mm 4 mps 721 mmHg 82%
    15:00 -18°C° 0 mm 4 mps 721 mmHg 84%
    16:00 -18°C° 0 mm 3 mps 722 mmHg 86%
    17:00 -19°C° 0 mm 3 mps 722 mmHg 87%
    18:00 -21°C° 0 mm 3 mps 723 mmHg 88%
    19:00 -22°C° 0 mm 3 mps 723 mmHg 88%
    20:00 -23°C° 0 mm 3 mps 724 mmHg 89%
    21:00 -23°C° 0 mm 3 mps 724 mmHg 89%
    22:00 -24°C° 0 mm 3 mps 724 mmHg 89%
    23:00 -24°C° 0 mm 3 mps 725 mmHg 89%

    Tomorrow, 21 February, Wednesday

    Time Temperature Precipitation Wind Pressure Humidity
    00:00 -25°C° 0 mm 3 mps 725 mmHg 88%
    01:00 -25°C° 0 mm 3 mps 726 mmHg 87%
    02:00 -25°C° 0 mm 3 mps 726 mmHg 87%
    03:00 -25°C° 0 mm 3 mps 726 mmHg 87%
    04:00 -25°C° 0 mm 3 mps 726 mmHg 87%
    05:00 -25°C° 0 mm 2 mps 727 mmHg 87%
    06:00 -24°C° 0 mm 2 mps 727 mmHg 88%
    07:00 -24°C° 0 mm 2 mps 728 mmHg 88%
    08:00 -23°C° 0 mm 2 mps 728 mmHg 88%
    09:00 -20°C° 0 mm 2 mps 729 mmHg 86%
    10:00 -18°C° 0 mm 2 mps 729 mmHg 84%
    11:00 -16°C° 0 mm 2 mps 729 mmHg 82%
    12:00 -15°C° 0 mm 2 mps 729 mmHg 81%
    13:00 -12°C° 0 mm 1 mps 728 mmHg 80%
    14:00 -11°C° 0 mm 1 mps 728 mmHg 79%
    15:00 -14°C° 0 mm 2 mps 728 mmHg 82%
    16:00 -15°C° 0 mm 2 mps 728 mmHg 85%
    17:00 -16°C° 0 mm 2 mps 728 mmHg 88%
    18:00 -17°C° 0 mm 2 mps 728 mmHg 88%
    19:00 -18°C° 0 mm 2 mps 728 mmHg 89%
    20:00 -19°C° 0 mm 2 mps 728 mmHg 89%
    21:00 -18°C° 0 mm 2 mps 728 mmHg 89%
    22:00 -18°C° 0 mm 2 mps 728 mmHg 90%
    23:00 -18°C° 0 mm 2 mps 728 mmHg 91%

    Day after tomorrow, 22 February, Thursday

    Time Temperature Precipitation Wind Pressure Humidity
    00:00 -18°C° 0 mm 2 mps 727 mmHg 92%
    01:00 -17°C° 0 mm 2 mps 727 mmHg 94%
    02:00 -17°C° 0 mm 2 mps 727 mmHg 96%
    03:00 -17°C° 0 mm 2 mps 727 mmHg 96%
    04:00 -18°C° 0 mm 2 mps 726 mmHg 96%
    05:00 -16°C° 0 mm 1 mps 726 mmHg 96%
    06:00 -16°C° 0 mm 1 mps 726 mmHg 96%
    07:00 -16°C° 0 mm 1 mps 726 mmHg 96%
    08:00 -15°C° 0 mm 1 mps 726 mmHg 96%
    09:00 -14°C° 0 mm 1 mps 726 mmHg 94%
    10:00 -13°C° 0 mm 1 mps 726 mmHg 93%
    11:00 -11°C° 0 mm 1 mps 726 mmHg 91%
    12:00 -10°C° 0 mm 1 mps 726 mmHg 89%
    13:00 -9°C° 0 mm 1 mps 725 mmHg 88%
    14:00 -9°C° 0 mm 0 mps 725 mmHg 87%
    15:00 -9°C° 0 mm 0 mps 724 mmHg 89%
    16:00 -10°C° 0 mm 0 mps 724 mmHg 91%
    17:00 -11°C° 0 mm 0 mps 724 mmHg 92%
    18:00 -11°C° 0 mm 1 mps 724 mmHg 93%
    19:00 -12°C° 0 mm 1 mps 724 mmHg 94%
    20:00 -12°C° 0 mm 1 mps 724 mmHg 95%
    21:00 -13°C° 0 mm 1 mps 724 mmHg 95%
    22:00 -14°C° 0 mm 1 mps 724 mmHg 96%
    23:00 -14°C° 0 mm 1 mps 724 mmHg 97%

    23 February, Friday

    Time Temperature Precipitation Wind Pressure Humidity
    00:00 -15°C° 0 mm 1 mps 724 mmHg 97%
    01:00 -15°C° 0 mm 1 mps 724 mmHg 97%
    02:00 -16°C° 0 mm 1 mps 723 mmHg 97%
    03:00 -16°C° 0 mm 1 mps 723 mmHg 96%
    04:00 -16°C° 0 mm 1 mps 723 mmHg 95%
    05:00 -17°C° 0 mm 1 mps 723 mmHg 94%
    06:00 -16°C° 0 mm 1 mps 723 mmHg 92%
    07:00 -16°C° 0 mm 1 mps 723 mmHg 91%
    08:00 -16°C° 0 mm 1 mps 723 mmHg 89%
    09:00 -14°C° 0 mm 1 mps 723 mmHg 86%
    10:00 -15°C° 0 mm 2 mps 723 mmHg 84%
    11:00 -13°C° 0 mm 2 mps 723 mmHg 81%
    12:00 -12°C° 0 mm 2 mps 722 mmHg 81%
    13:00 -10°C° 0 mm 2 mps 722 mmHg 81%
    14:00 -9°C° 0 mm 2 mps 721 mmHg 81%
    15:00 -10°C° 0 mm 2 mps 721 mmHg 83%
    16:00 -12°C° 0 mm 2 mps 720 mmHg 85%
    17:00 -13°C° 0 mm 2 mps 720 mmHg 87%
    18:00 -14°C° 0 mm 2 mps 720 mmHg 88%
    19:00 -14°C° 0 mm 2 mps 719 mmHg 88%
    20:00 -15°C° 0 mm 2 mps 719 mmHg 89%
    21:00 -15°C° 0 mm 2 mps 719 mmHg 89%
    22:00 -17°C° 0 mm 3 mps 718 mmHg 90%
    23:00 -17°C° 0 mm 3 mps 718 mmHg 90%

    24 February, Saturday

    Time Temperature Precipitation Wind Pressure Humidity
    00:00 -17°C° 0 mm 3 mps 717 mmHg 91%
    01:00 -17°C° 0 mm 3 mps 717 mmHg 91%
    02:00 -17°C° 0 mm 3 mps 716 mmHg 92%
    03:00 -17°C° 0 mm 3 mps 716 mmHg 93%
    04:00 -17°C° 0 mm 4 mps 715 mmHg 93%
    05:00 -17°C° 0 mm 4 mps 715 mmHg 94%
    06:00 -16°C° 0 mm 4 mps 714 mmHg 94%
    07:00 -15°C° 0 mm 4 mps 714 mmHg 94%
    08:00 -14°C° 0 mm 4 mps 713 mmHg 94%
    09:00 -12°C° 0 mm 5 mps 713 mmHg 90%
    10:00 -10°C° 0 mm 5 mps 712 mmHg 86%
    11:00 -8°C° 0 mm 5 mps 712 mmHg 81%
    12:00 -6°C° 0 mm 5 mps 711 mmHg 80%
    13:00 -5°C° 0 mm 5 mps 710 mmHg 79%
    14:00 -4°C° 0 mm 5 mps 710 mmHg 78%
    15:00 -4°C° 0 mm 5 mps 709 mmHg 78%
    16:00 -5°C° 0 mm 5 mps 709 mmHg 79%
    17:00 -4°C° 0 mm 4 mps 709 mmHg 79%
    18:00 -5°C° 0 mm 4 mps 709 mmHg 79%
    19:00 -6°C° 0 mm 5 mps 709 mmHg 80%
    20:00 -7°C° 0 mm 5 mps 709 mmHg 80%
    21:00 -7°C° 0 mm 4 mps 708 mmHg 82%
    22:00 -8°C° 0 mm 4 mps 708 mmHg 83%
    23:00 -8°C° 0 mm 3 mps 708 mmHg 85%

    25 February, Sunday

    Time Temperature Precipitation Wind Pressure Humidity
    00:00 -9°C° 0 mm 3 mps 708 mmHg 86%
    01:00 -9°C° 0 mm 3 mps 708 mmHg 86%
    02:00 -10°C° 0 mm 3 mps 708 mmHg 87%
    03:00 -10°C° 0 mm 3 mps 708 mmHg 88%
    04:00 -12°C° 0 mm 3 mps 708 mmHg 89%
    05:00 -12°C° 0 mm 3 mps 709 mmHg 91%
    06:00 -12°C° 0 mm 3 mps 709 mmHg 91%
    07:00 -12°C° 0 mm 3 mps 710 mmHg 91%
    08:00 -12°C° 0 mm 3 mps 710 mmHg 92%
    09:00 -10°C° 0 mm 3 mps 711 mmHg 91%
    10:00 -10°C° 0 mm 4 mps 711 mmHg 91%
    11:00 -9°C° 0 mm 4 mps 712 mmHg 91%
    12:00 -8°C° 0 mm 4 mps 712 mmHg 89%
    13:00 -8°C° 0 mm 5 mps 713 mmHg 87%
    14:00 -8°C° 0 mm 5 mps 713 mmHg 85%
    15:00 -10°C° 0 mm 5 mps 714 mmHg 86%
    16:00 -10°C° 0 mm 4 mps 714 mmHg 86%
    17:00 -11°C° 0 mm 4 mps 715 mmHg 87%
    18:00 -14°C° 0 mm 4 mps 716 mmHg 89%
    19:00 -15°C° 0 mm 3 mps 716 mmHg 91%
    20:00 -16°C° 0 mm 3 mps 717 mmHg 92%
    21:00 -17°C° 0 mm 2 mps 717 mmHg 93%
    22:00 -18°C° 0 mm 2 mps 718 mmHg 93%
    23:00 -19°C° 0 mm 2 mps 718 mmHg 94%
    Show more